15 daagse weersverwachting Modena (IT)

  • Overzicht
  • Per uur
  • 15 dagen
  • Extra
  • Vergelijk
  • Kaarten
  • Dagkaart
  • Meer »
  • Info
  • Statistieken
  • Directe link
    Temp 6h Neerslag Wind  
 05:52     20:54    Daglengte: 15:02 Vandaag
20:00
26°
1.6 mm
2
 05:53     20:53    Daglengte: 15:00 Morgen
02:00
21°
0.2 mm
1
08:00
22°
 
2
14:00
30°
 
2
20:00
28°
0.6 mm
1
 05:54     20:52    Daglengte: 14:58 Maandag 23 Jul
02:00
22°
 
2
08:00
21°
7.4 mm
3
14:00
30°
 
1
20:00
29°
 
2
 05:56     20:51    Daglengte: 14:55 Dinsdag 24 Jul
02:00
22°
 
2
08:00
24°
 
1
Locatie info
Region: Emilia Romagna
Latitude: 44.6431°N
Longitude: 10.9341°E
46 masl
Postcode: 41121
Temp/Neerslag /Baro Onweer/Dauwpunt
    Temp Baro 1h Neerslag Dauwpunt Wind UV Bewolking  
 05:52     20:54    Daglengte: 15:02 Vandaag
16:00
28°
1009.0 hPa
34%
18.2°
1
Windvlaag: -0 km/h
23%
17:00
29°
1008.6 hPa 0.3 mm
69%
17.9°
1
Windvlaag: 0.3 km/h
41% warningclass
18:00
28°
1008.4 hPa 1.1 mm
76%
17.3°
2
Windvlaag: -1 km/h
48% warningclass
19:00
27°
1008.3 hPa 0.3 mm
69%
18.7°
2
Windvlaag: -0.7 km/h
29% warningclass
20:00
26°
1008.3 hPa
14%
19.3°
2
Windvlaag: -0.2 km/h
34%
21:00
24°
1008.6 hPa
14%
19.8°
2
Windvlaag: 0.8 km/h
28%
22:00
23°
1009.1 hPa
14%
19.8°
3
Windvlaag: 1.1 km/h
30%
23:00
23°
1009.4 hPa
30%
19.9°
2
Windvlaag: 0.8 km/h
20%
 05:53     20:53    Daglengte: 15:00 Morgen
00:00
22°
1009.7 hPa 0.2 mm
78%
20.2°
3
Windvlaag: 0.7 km/h
27% warningclass
01:00
21°
1009.8 hPa
27%
19.9°
2
Windvlaag: 0.5 km/h
22%
02:00
21°
1009.7 hPa
21%
19.7°
1
Windvlaag: -0 km/h
45%
03:00
20°
1009.4 hPa
77%
18.9°
2
Windvlaag: 0.5 km/h
55% warningclass
04:00
20°
1009.1 hPa
77%
18.4°
2
Windvlaag: 0.7 km/h
42%
05:00
20°
1009.2 hPa
19%
18.0°
2
Windvlaag: 0.9 km/h
62%
06:00
20°
1009.1 hPa
20%
17.9°
1
Windvlaag: 0.8 km/h
43%
07:00
21°
1009.3 hPa
51%
18.0°
2
Windvlaag: 0.7 km/h
42%
08:00
22°
1009.5 hPa
14%
18.1°
2
Windvlaag: 1.4 km/h
53%
09:00
23°
1009.5 hPa
22%
17.9°
2
Windvlaag: 0.8 km/h
52%
10:00
24°
1009.5 hPa
75%
17.4°
3
Windvlaag: 0.1 km/h
55%
11:00
26°
1009.5 hPa
23%
17.3°
2
Windvlaag: -0.8 km/h
46%
12:00
27°
1009.4 hPa
82%
16.7°
2
Windvlaag: -1.2 km/h
41%
13:00
29°
1009.0 hPa
70%
16.1°
2
Windvlaag: -1.7 km/h
52%
14:00
30°
Voelt als: 29.5°
1008.7 hPa
76%
15.7°
2
Windvlaag: -1.2 km/h
59%
15:00
30°
Voelt als: 29.8°
1008.3 hPa
39%
15.6°
2
Windvlaag: 0.4 km/h
62%
16:00
29°
Voelt als: 29.2°
1008.2 hPa 0.6 mm
82%
14.9°
3
Windvlaag: 1.5 km/h
53%
17:00
29°
1008.0 hPa
82%
16.9°
3
Windvlaag: 1.5 km/h
47%
18:00
29°
1007.8 hPa
37%
16.4°
2
Windvlaag: 1.3 km/h
49%
19:00
29°
1007.7 hPa
81%
16.1°
2
Windvlaag: 1.5 km/h
54%
20:00
28°
1007.8 hPa
34%
17.5°
1
Windvlaag: 1.7 km/h
63%
21:00
26°
1008.2 hPa
25%
17.6°
2
Windvlaag: 1.3 km/h
80%
22:00
25°
1008.7 hPa
72%
17.2°
2
Windvlaag: 1.2 km/h
80%
23:00
24°
1008.9 hPa
81%
16.5°
3
Windvlaag: 1.2 km/h
80%
 05:54     20:52    Daglengte: 14:58 Maandag 23 Jul
00:00
24°
1009.0 hPa
28%
16.4°
3
Windvlaag: 2.3 km/h
75%
01:00
23°
1008.9 hPa
67%
16.2°
2
Windvlaag: 2.1 km/h
76%
02:00
22°
1009.0 hPa
65%
16.3°
2
Windvlaag: 1.6 km/h
78%
03:00
21°
1008.9 hPa 2.1 mm
69%
17.4°
3
Windvlaag: 0.3 km/h
73% warningclass
04:00
21°
1008.7 hPa 1.1 mm
74%
17.2°
3
Windvlaag: 1.4 km/h
72%
05:00
20°
1008.7 hPa 0.7 mm
73%
16.9°
3
Windvlaag: 1.5 km/h
66%
06:00
20°
1008.9 hPa 1.6 mm
82%
17.2°
2
Windvlaag: 1.4 km/h
74%
07:00
20°
1009.2 hPa 1.9 mm
72%
17.3°
3
Windvlaag: 1.3 km/h
71%
08:00
21°
1009.4 hPa
25%
17.5°
3
Windvlaag: 1.2 km/h
32%
09:00
23°
1009.8 hPa
25%
17.3°
2
Windvlaag: 1.3 km/h
11%
10:00
25°
1010.0 hPa
29%
17.2°
3
Windvlaag: -0.6 km/h
5%
11:00
26°
1010.5 hPa
84%
17.4°
2
Windvlaag: -0.7 km/h
8%
12:00
28°
1010.4 hPa
74%
16.8°
2
Windvlaag: -0.8 km/h
11%
13:00
29°
1010.5 hPa
33%
15.7°
2
Windvlaag: -1.2 km/h
7%
14:00
30°
Voelt als: 29.4°
1010.3 hPa
25%
15.0°
1
Windvlaag: -1.6 km/h
24%
15:00
30°
Voelt als: 29.4°
1010.1 hPa
21%
14.1°
1
Windvlaag: -1.4 km/h
10%
16:00
30°
Voelt als: 29.8°
1009.7 hPa
21%
14.0°
1
Windvlaag: 2.6 km/h
26%
17:00
31°
Voelt als: 30.0°
1009.5 hPa
21%
14.2°
1
Windvlaag: 2.7 km/h
16%
18:00
30°
Voelt als: 30.0°
1009.6 hPa
21%
14.6°
2
Windvlaag: 2.4 km/h
18%
19:00
30°
Voelt als: 29.7°
1009.6 hPa
21%
15.1°
2
Windvlaag: 2.2 km/h
4%
20:00
29°
1009.9 hPa
21%
16.5°
2
Windvlaag: 1.7 km/h
0%
21:00
26°
1010.5 hPa
21%
16.7°
2
Windvlaag: 1.6 km/h
1%
22:00
25°
1011.1 hPa
21%
16.4°
2
Windvlaag: 1.6 km/h
1%
23:00
24°
1011.3 hPa
21%
16.3°
2
Windvlaag: 1.6 km/h
2%
 05:56     20:51    Daglengte: 14:55 Dinsdag 24 Jul
00:00
23°
1011.7 hPa
21%
15.5°
2
Windvlaag: 0.9 km/h
2%
01:00
22°
1011.8 hPa
21%
15.1°
2
Windvlaag: 0.8 km/h
5%
02:00
22°
1011.8 hPa
21%
14.9°
2
Windvlaag: 1 km/h
13%
03:00
21°
1011.6 hPa
22%
15.2°
1
Windvlaag: 0.9 km/h
17%
04:00
20°
1011.6 hPa
21%
15.6°
1
Windvlaag: 0.9 km/h
18%
05:00
20°
1011.7 hPa
21%
15.5°
1
Windvlaag: 0.9 km/h
15%
06:00
20°
1011.8 hPa
21%
14.8°
1
Windvlaag: 1.2 km/h
13%
07:00
21°
1011.9 hPa
21%
15.0°
1
Windvlaag: 1.4 km/h
10%
08:00
24°
1012.1 hPa
21%
15.6°
1
Windvlaag: 1.6 km/h
8%
09:00
26°
1012.1 hPa
21%
15.9°
1
Windvlaag: 3.1 km/h
6%
10:00
27°
1012.0 hPa
21%
15.6°
1
Windvlaag: 3.4 km/h
8%
11:00
29°
Voelt als: 28.7°
1011.8 hPa
21%
15.3°
1
Windvlaag: 3.6 km/h
9%
12:00
30°
Voelt als: 29.8°
1011.6 hPa
21%
14.7°
1
Windvlaag: 3.8 km/h
11%
13:00
32°
Voelt als: 30.8°
1011.2 hPa
21%
13.9°
1
Windvlaag: 2.9 km/h
12%
14:00
33°
Voelt als: 31.5°
1010.8 hPa
21%
12.6°
1
Windvlaag: 0.4 km/h
14%
15:00
32°
Voelt als: 31.4°
1010.0 hPa   14.6°
1
Windvlaag: 0 km/h
27%
Temp/Neerslag /Baro Onweer/Dauwpunt
    Temp Baro Neerslag Dauwpunt Wind Bewolking  
 05:52     20:54    Daglengte: 15:02 Vandaag
17:00
29°
1008.6 hPa 0.3 mm 17.9°
1
41% warningclass
20:00
26°
1008.3 hPa 1.3 mm 19.3°
2
34%
23:00
23°
1009.4 hPa   19.9°
2
20%
 05:53     20:53    Daglengte: 15:00 Morgen
02:00
21°
1009.7 hPa 0.2 mm 19.7°
1
45%
05:00
20°
1009.2 hPa   18.0°
2
62%
08:00
22°
1009.5 hPa   18.1°
2
53%
11:00
26°
1009.5 hPa   17.3°
2
46%
14:00
30°
Voelt als: 29.5°
1008.7 hPa   15.7°
2
59%
17:00
29°
1008.0 hPa 0.6 mm 16.9°
3
47%
20:00
28°
1007.8 hPa   17.5°
1
63%
23:00
24°
1008.9 hPa   16.5°
3
80%
 05:54     20:52    Daglengte: 14:58 Maandag 23 Jul
02:00
22°
1009.0 hPa   16.3°
2
78%
05:00
20°
1008.7 hPa 3.9 mm 16.9°
3
66%
08:00
21°
1009.4 hPa 3.5 mm 17.5°
3
32%
11:00
26°
1010.5 hPa   17.4°
2
8%
14:00
30°
Voelt als: 29.4°
1010.3 hPa   15.0°
1
24%
17:00
31°
Voelt als: 30.0°
1009.5 hPa   14.2°
1
16%
20:00
29°
1009.9 hPa   16.5°
2
0%
23:00
24°
1011.3 hPa   16.3°
2
2%
 05:56     20:51    Daglengte: 14:55 Dinsdag 24 Jul
02:00
22°
1011.8 hPa   14.9°
2
13%
05:00
20°
1011.7 hPa   15.5°
1
15%
08:00
24°
1012.1 hPa   15.6°
1
8%
11:00
29°
Voelt als: 28.7°
1011.8 hPa   15.3°
1
9%
14:00
33°
Voelt als: 31.5°
1010.8 hPa   12.6°
1
14%
17:00
31°
Voelt als: 31.0°
1009.6 hPa   15.9°
2
23%
20:00
30°
1009.1 hPa   17.0°
3
22%
23:00
26°
1009.8 hPa   15.4°
2
16%
 05:57     20:50    Daglengte: 14:53 Woensdag 25 Jul
02:00
23°
1010.4 hPa   13.8°
1
10%
05:00
23°
1010.9 hPa   14.7°
1
24%
08:00
23°
1011.5 hPa   15.7°
1
39%
11:00
28°
1011.1 hPa   16.1°
1
32%
14:00
32°
Voelt als: 31.4°
1010.5 hPa   15.4°
1
24%
17:00
31°
1010.1 hPa   17.2°
1
31%
20:00
29°
1009.8 hPa   18.7°
1
37%
23:00
26°
1010.6 hPa   18.2°
2
22%
 05:58     20:49    Daglengte: 14:51 Donderdag 26 Jul
02:00
23°
1011.3 hPa   17.6°
2
7%
05:00
24°
1011.5 hPa   17.9°
2
7%
08:00
25°
1011.8 hPa   18.2°
1
8%
11:00
29°
1011.3 hPa   17.7°
1
7%
14:00
33°
Voelt als: 32.7°
1010.6 hPa   15.6°
1
6%
17:00
31°
1010.7 hPa   16.4°
1
21%
20:00
29°
1010.8 hPa   16.8°
2
36%
23:00
26°
1011.3 hPa   17.1°
2
27%
 05:59     20:47    Daglengte: 14:48 Vrijdag 27 Jul
02:00
23°
1011.8 hPa   17.1°
2
17%
05:00
23°
1012.2 hPa   17.2°
1
18%
08:00
24°
1012.6 hPa   17.4°
1
19%
11:00
29°
1012.1 hPa   17.5°
2
29%
14:00
33°
1011.5 hPa   16.1°
2
39%
17:00
31°
1011.4 hPa   18.0°
1
42%
20:00
29°
1011.5 hPa   19.2°
1
46%
23:00
26°
1011.9 hPa   19.1°
1
29%
 06:00     20:46    Daglengte: 14:46 Zaterdag 28 Jul
02:00
23°
1012.3 hPa   18.9°
2
11%
05:00
24°
1012.6 hPa   18.8°
1
6%
08:00
25°
1012.9 hPa   18.7°
1
0%
11:00
29°
1012.6 hPa   18.4°
1
15%
14:00
32°
1012.2 hPa   16.9°
1
31%
20:00
30°
1011.6 hPa   20.9°
1
31%
 06:01     20:45    Daglengte: 14:44 Zondag 29 Jul
02:00
24°
1012.1 hPa   18.0°
2
25%
08:00
26°
1011.8 hPa   17.9°
2
1%
14:00
35°
Voelt als: 34.6°
1010.1 hPa   15.6°
2
8%
20:00
32°
1008.6 hPa   17.0°
1
17%
 06:02     20:44    Daglengte: 14:42 Maandag 30 Jul
02:00
25°
1009.1 hPa 1.7 mm 18.0°
1
2%
08:00
26°
1008.8 hPa   17.6°
1
0%
14:00
36°
Voelt als: 35.5°
1006.3 hPa   15.5°
1
15%
20:00
28°
1006.2 hPa   19.8°
2
33%
 06:03     20:43    Daglengte: 14:40 Dinsdag 31 Jul
02:00
24°
1006.2 hPa 8.1 mm 19.2°
0
0%
08:00
26°
1009.9 hPa   18.9°
1
1%
14:00
32°
1011.2 hPa 0.6 mm 17.3°
3
18%
20:00
29°
1010.8 hPa 1.8 mm 19.4°
2
30%
 06:04     20:42    Daglengte: 14:38 Woensdag 01 Aug
02:00
22°
1012.5 hPa 1.0 mm 16.2°
1
29%
08:00
24°
1013.1 hPa 0.4 mm 17.3°
1
22%
14:00
32°
1012.7 hPa 1.2 mm 17.4°
2
16%
20:00
29°
1012.4 hPa 2.1 mm 19.6°
1
30%
 06:05     20:40    Daglengte: 14:35 Donderdag 02 Aug
02:00
22°
1014.0 hPa 0.6 mm 16.1°
1
22%
08:00
24°
1014.6 hPa 0.2 mm 17.4°
1
22%
14:00
33°
1013.8 hPa 0.7 mm 17.2°
1
16%
20:00
30°
1013.3 hPa 1.3 mm 19.5°
1
27%
 06:06     20:39    Daglengte: 14:33 Vrijdag 03 Aug
02:00
22°
1014.5 hPa 0.2 mm 15.9°
1
21%
08:00
24°
1014.5 hPa 0.2 mm 17.3°
1
18%
14:00
33°
1013.4 hPa 0.6 mm 17.0°
1
12%
20:00
30°
1012.7 hPa 1.0 mm 18.7°
1
22%
 06:08     20:38    Daglengte: 14:30 Zaterdag 04 Aug
02:00
22°
1013.8 hPa 0.3 mm 15.6°
1
19%
08:00
24°
1014.0 hPa 0.2 mm 17.1°
1
18%
14:00
33°
1012.9 hPa 0.4 mm 16.6°
2
10%
20:00
29°
1012.2 hPa 1.1 mm 18.6°
2
22%
 06:09     20:36    Daglengte: 14:27 Zondag 05 Aug
02:00
22°
1013.6 hPa 0.5 mm 15.4°
1
23%
08:00
24°
1013.9 hPa 0.3 mm 16.7°
1
20%
14:00
32°
1013.1 hPa 0.8 mm 16.4°
2
14%
  CAPE Lifted Index Hail Supercell Tornado SRH 3km CL BTM PRES CL TOP PRES Swiss DWD icon SMHI TS
 05:52     20:54    Daglengte: 15:02 Vandaag
16:00 1398 J/kg -4.8 K 0 % 0 % 0 % 0 m²/s² 0 0 -2.58 80
17:00 1646 J/kg -5.1 K 0 % 0 % 0 % 0 m²/s² 0 0 -3.3 3
18:00 1754 J/kg -5.0 K 0 % 0 % 0 % 0 m²/s² 0 0 -2.72 80
19:00 1395 J/kg -4.4 K 0 % 0 % 0 % 0 m²/s² 0 0 -2.39 3
20:00 1191 J/kg -3.8 K 0 % 0 % 0 % 0 m²/s² 0 0 -1.73 3
21:00 1329 J/kg -4.1 K 0 % 0 % 0 % 0 m²/s² 0 0 -1.37 3
22:00 1451 J/kg -5.4 K 0 % 0 % 0 % 0 m²/s² 0 0 -2.16 3
23:00 1437 J/kg -5.0 K 0 % 0 % 0 % 0 m²/s² 0 0 -2.36 2
 05:53     20:53    Daglengte: 15:00 Morgen
00:00 1351 J/kg -5.1 K 0 % 0 % 0 % 0 m²/s² 0 0 -2.61 3
01:00 1054 J/kg -4.5 K 0 % 0 % 0 % 0 m²/s² 0 0 -2.43 3
02:00 729 J/kg -4.3 K 0 % 0 % 0 % 0 m²/s² 0 0 -2.35 3
03:00 550 J/kg -3.2 K 0 % 0 % 0 % 0 m²/s² 0 0 -1.7 95
04:00 395 J/kg -2.4 K 0 % 0 % 0 % 0 m²/s² 0 0 -0.27 80
05:00 194 J/kg -2.2 K 0 % 0 % 0 % 0 m²/s² 0 0 -0.13 3
06:00 0 J/kg -1.6 K 0 % 0 % 0 % 0 m²/s² 0 0 0.59 2
07:00 0 J/kg -1.3 K 0 % 0 % 0 % 0 m²/s² 0 0 1.25 80
08:00 161 J/kg -1.3 K 0 % 0 % 0 % 0 m²/s² 0 0 1.4 3
09:00 275 J/kg -1.6 K 0 % 0 % 0 % 0 m²/s² 0 0 1.52 3
10:00 409 J/kg -2.3 K 0 % 0 % 0 % 0 m²/s² 0 0 1 3
11:00 701 J/kg -3.0 K 0 % 0 % 0 % 0 m²/s² 0 0 0.12 3
12:00 987 J/kg -3.4 K 0 % 0 % 0 % 0 m²/s² 0 0 -0.1 80
13:00 1026 J/kg -3.3 K 0 % 0 % 0 % 0 m²/s² 0 0 -0.36 3
14:00 1041 J/kg -3.2 K 0 % 0 % 0 % 0 m²/s² 0 0 -0.26 3
15:00 1374 J/kg -4.3 K 0 % 0 % 0 % 0 m²/s² 0 0 -1.33 3
16:00 1288 J/kg -4.0 K 0 % 0 % 0 % 0 m²/s² 0 0 -1.21 3
17:00 1202 J/kg -4.1 K 0 % 0 % 0 % 0 m²/s² 0 0 -1.82 3
18:00 1099 J/kg -3.7 K 0 % 0 % 0 % 0 m²/s² 0 0 -1.69 3
19:00 941 J/kg -3.5 K 0 % 0 % 0 % 0 m²/s² 0 0 -1.49 80
20:00 768 J/kg -3.1 K 0 % 0 % 0 % 0 m²/s² 0 0 -1.12 3
21:00 862 J/kg -3.4 K 0 % 0 % 0 % 0 m²/s² 0 0 -2.14 3
22:00 777 J/kg -3.5 K 0 % 0 % 0 % 0 m²/s² 0 0 -2.48 3
23:00 858 J/kg -3.5 K 0 % 0 % 0 % 0 m²/s² 0 0 -2.45 3
 05:54     20:52    Daglengte: 14:58 Maandag 23 Jul
00:00 544 J/kg -2.1 K 0 % 0 % 0 % 0 m²/s² 0 0 -1.08 3
01:00 258 J/kg -1.7 K 0 % 0 % 0 % 0 m²/s² 0 0 -1.07 3
02:00 353 J/kg -1.9 K 0 % 0 % 0 % 0 m²/s² 0 0 -1.6 80
03:00 212 J/kg -1.1 K 0 % 0 % 0 % 0 m²/s² 0 0 -0.47 95
04:00 108 J/kg -1.1 K 0 % 0 % 0 % 0 m²/s² 0 0 -0.23 80
05:00 0 J/kg -0.1 K 0 % 0 % 0 % 0 m²/s² 0 0 0.47 3
06:00 0 J/kg 0.3 K 0 % 0 % 0 % 0 m²/s² 0 0 1.26 80
07:00 0 J/kg 0.1 K 0 % 0 % 0 % 0 m²/s² 0 0 1.27 3
08:00 0 J/kg 0.3 K 0 % 0 % 0 % 0 m²/s² 0 0 0.66 3
09:00 52 J/kg -0.3 K 0 % 0 % 0 % 0 m²/s² 0 0 -0.18 3
10:00 75 J/kg -0.4 K 0 % 0 % 0 % 0 m²/s² 0 0 0.23 2
11:00 229 J/kg -1.0 K 0 % 0 % 0 % 0 m²/s² 0 0 -0.31 2
12:00 538 J/kg -1.8 K 0 % 0 % 0 % 0 m²/s² 0 0 -0.72 0
13:00 476 J/kg -1.5 K 0 % 0 % 0 % 0 m²/s² 0 0 -0.69 2
14:00 506 J/kg -1.7 K 0 % 0 % 0 % 0 m²/s² 0 0 -0.41 1
15:00 635 J/kg -2.2 K 0 % 0 % 0 % 0 m²/s² 0 0 -1.18 1
16:00 755 J/kg -2.6 K 0 % 0 % 0 % 0 m²/s² 0 0 -1.52 0
17:00 774 J/kg -2.9 K 0 % 0 % 0 % 0 m²/s² 0 0 -1.76 0
18:00 822 J/kg -3.1 K 0 % 0 % 0 % 0 m²/s² 0 0 -1.75 0
19:00 893 J/kg -3.2 K 0 % 0 % 0 % 0 m²/s² 0 0 -2.03 0
20:00 894 J/kg -3.2 K 0 % 0 % 0 % 0 m²/s² 0 0 -2.72 0
21:00 870 J/kg -3.0 K 0 % 0 % 0 % 0 m²/s² 0 0 -2.37 0
22:00 485 J/kg -1.9 K 0 % 0 % 0 % 0 m²/s² 0 0 -1.18 0
23:00 767 J/kg -2.5 K 0 % 0 % 0 % 0 m²/s² 0 0 -1.48 0
 05:56     20:51    Daglengte: 14:55 Dinsdag 24 Jul
00:00 750 J/kg -2.5 K 0 % 0 % 0 % 0 m²/s² 0 0 -1.54 0
01:00 615 J/kg -2.2 K 0 % 0 % 0 % 0 m²/s² 0 0 -1.18 0
02:00 455 J/kg -2.0 K 0 % 0 % 0 % 0 m²/s² 0 0 -1.04 0
03:00 338 J/kg -1.7 K 0 % 0 % 0 % 0 m²/s² 0 0 -0.77 1
04:00 210 J/kg -1.3 K 0 % 0 % 0 % 0 m²/s² 0 0 -0.22 1
05:00 132 J/kg -1.1 K 0 % 0 % 0 % 0 m²/s² 0 0 0.19 1
06:00 70 J/kg -1.0 K 0 % 0 % 0 % 0 m²/s² 0 0 0.35 0
07:00 9 J/kg -0.4 K 0 % 0 % 0 % 0 m²/s² 0 0 1.16 0
08:00 99 J/kg -0.6 K 0 % 0 % 0 % 0 m²/s² 0 0 1.14 1
09:00 220 J/kg -1.0 K 0 % 0 % 0 % 0 m²/s² 0 0 1.01 0
10:00 84 J/kg -0.4 K 0 % 0 % 0 % 0 m²/s² 0 0 1.55 0
11:00 73 J/kg -0.2 K 0 % 0 % 0 % 0 m²/s² 0 0 1.87 1
12:00 86 J/kg -0.3 K 0 % 0 % 0 % 0 m²/s² 0 0 1.71 2
13:00 42 J/kg 0.0 K 0 % 0 % 0 % 0 m²/s² 0 0 2.01 1
14:00 28 J/kg 0.4 K 0 % 0 % 0 % 0 m²/s² 0 0 2.41 1
15:00 0 J/kg 0.0 K 0 % 0 % 0 % 0 m²/s² 0 0 13.83
Temp Baro Wind Neerslag
  EWN Forecast EWN WRFDA DWD ICON FMI HIRLAM MET Norway GFS
 05:52     20:54    Daglengte: 15:02 Vandaag
17:00 28.7° 1008.6 hPa 1.4 m/s 0.3 mm 32.1° 1007.8 hPa 3.6 m/s 0.3 mm 25.9° 1009.8 hPa 2.1 m/s -1.1 mm 27.2° 1008.8 hPa 1.6 m/s 0.0 mm 29.7° 1008.2 hPa 0.7 m/s 0.3 mm 30.7° 1009.8 hPa 1.7 m/s
20:00 26.0° 1008.3 hPa 1.6 m/s 1.3 mm 30.6° 1006.8 hPa 4.9 m/s 1.8 mm 23.4° 1010.0 hPa 1.4 m/s 1.4 mm 26.2° 1007.7 hPa 1.3 m/s 0.0 mm 25.6° 1008.5 hPa 1.7 m/s 0.0 mm 27.4° 1009.3 hPa 2.5 m/s
23:00 22.5° 1009.4 hPa 2.4 m/s 0.0 mm 25.6° 1008.5 hPa 2.5 m/s 1.8 mm 21.9° 1010.4 hPa 0.6 m/s 0.0 mm 22.3° 1009.2 hPa 2.5 m/s 0.0 mm 21.9° 1009.6 hPa 2.6 m/s 0.0 mm 23.4° 1010.3 hPa 1.0 m/s
 05:53     20:53    Daglengte: 15:00 Morgen
02:00 21.0° 1009.7 hPa 1.2 m/s 0.2 mm 23.2° 1008.7 hPa 0.4 m/s 1.8 mm 20.5° 1010.1 hPa 1.1 m/s 0.1 mm 21.1° 1009.0 hPa 1.6 m/s 0.0 mm 19.7° 1010.5 hPa 0.9 m/s 0.0 mm 22.0° 1010.2 hPa 1.9 m/s
05:00 20.1° 1009.2 hPa 1.5 m/s 0.0 mm 21.6° 1008.8 hPa 1.9 m/s 1.8 mm 19.6° 1009.5 hPa 0.7 m/s 1.3 mm 19.8° 1008.5 hPa 2.5 m/s 0.0 mm 19.9° 1009.8 hPa 1.1 m/s 0.0 mm 21.0° 1009.6 hPa 1.8 m/s
08:00 21.7° 1009.5 hPa 1.6 m/s 0.0 mm 23.6° 1009.0 hPa 0.8 m/s 1.8 mm 21.0° 1009.9 hPa 0.7 m/s 0.2 mm 21.5° 1008.5 hPa 2.3 m/s 0.0 mm 21.6° 1009.8 hPa 1.5 m/s 0.0 mm 23.2° 1010.1 hPa 1.8 m/s
11:00 26.1° 1009.5 hPa 2.4 m/s 0.0 mm 27.6° 1009.0 hPa 1.2 m/s 1.8 mm 23.5° 1010.0 hPa 1.4 m/s 0.1 mm 26.3° 1008.5 hPa 3.0 m/s 0.0 mm 26.1° 1009.7 hPa 3.0 m/s 0.0 mm 27.8° 1010.4 hPa 2.2 m/s
14:00 29.5° 1008.7 hPa 1.5 m/s 0.0 mm 30.1° 1007.9 hPa 0.4 m/s 2.0 mm 26.3° 1009.5 hPa 0.9 m/s 0.4 mm 29.1° 1008.0 hPa 2.6 m/s 0.0 mm 30.0° 1009.1 hPa 2.1 m/s 0.0 mm 31.3° 1009.7 hPa 1.3 m/s
17:00 28.7° 1008.0 hPa 2.7 m/s 0.6 mm 31.3° 1006.5 hPa 4.4 m/s 2.6 mm 25.9° 1008.6 hPa 0.4 m/s 0.4 mm 29.4° 1007.2 hPa 3.5 m/s 0.0 mm 28.7° 1008.6 hPa 3.1 m/s 0.0 mm 30.9° 1009.2 hPa 1.4 m/s
20:00 27.7° 1007.8 hPa 1.5 m/s 0.0 mm 28.4° 1006.4 hPa 4.9 m/s 3.0 mm 24.9° 1008.9 hPa 1.0 m/s 0.2 mm 26.9° 1007.0 hPa 2.5 m/s 0.0 mm 27.9° 1008.3 hPa 1.2 m/s 0.0 mm 28.6° 1009.1 hPa 0.7 m/s
23:00 24.4° 1008.9 hPa 2.9 m/s 0.0 mm 26.2° 1008.0 hPa 4.3 m/s 4.0 mm 21.6° 1009.6 hPa 2.1 m/s 0.2 mm 23.9° 1007.9 hPa 4.2 m/s 0.0 mm 24.5° 1009.4 hPa 2.9 m/s 0.0 mm 24.5° 1010.2 hPa 1.7 m/s
 05:54     20:52    Daglengte: 14:58 Maandag 23 Jul
02:00 22.4° 1009.0 hPa 2.2 m/s 0.0 mm 22.5° 1008.7 hPa 1.8 m/s 7.3 mm 20.0° 1009.4 hPa 1.7 m/s 0.6 mm 22.9° 1007.8 hPa 3.4 m/s 0.0 mm 22.6° 1009.5 hPa 2.6 m/s 0.0 mm 23.0° 1010.1 hPa 1.7 m/s
05:00 20.3° 1008.7 hPa 2.5 m/s 3.9 mm 21.7° 1007.1 hPa 3.1 m/s 7.6 mm 19.1° 1008.9 hPa 2.5 m/s 3.6 mm 20.3° 1007.7 hPa 2.5 m/s 0.0 mm 20.0° 1010.2 hPa 3.0 m/s 5.4 mm 21.3° 1009.4 hPa 2.0 m/s
08:00 21.2° 1009.4 hPa 2.7 m/s 3.5 mm 21.8° 1007.2 hPa 4.3 m/s 7.8 mm 20.1° 1010.1 hPa 1.9 m/s 2.5 mm 21.9° 1008.5 hPa 3.4 m/s 0.0 mm 21.0° 1010.8 hPa 2.7 m/s 1.0 mm 22.3° 1009.7 hPa 2.6 m/s
11:00 26.3° 1010.5 hPa 2.2 m/s 0.0 mm 27.4° 1007.4 hPa 4.6 m/s 8.3 mm 24.5° 1010.8 hPa 2.2 m/s 0.3 mm 26.6° 1011.6 hPa 0.8 m/s 0.0 mm 26.5° 1010.0 hPa 3.4 m/s
14:00 29.7° 1010.3 hPa 1.5 m/s 0.0 mm 30.8° 1007.3 hPa 4.5 m/s 8.3 mm 28.2° 1010.6 hPa 1.0 m/s 0.0 mm 29.9° 1011.0 hPa 0.9 m/s 0.0 mm 29.5° 1010.2 hPa 2.8 m/s
17:00 30.5° 1009.5 hPa 1.4 m/s 0.0 mm 31.9° 1007.3 hPa 3.2 m/s 8.8 mm 29.2° 1009.7 hPa 1.1 m/s 0.0 mm 30.9° 1010.2 hPa 1.2 m/s 0.0 mm 30.8° 1009.8 hPa 1.9 m/s
20:00 28.5° 1009.9 hPa 1.7 m/s 0.0 mm 31.1° 1008.9 hPa 4.8 m/s 9.7 mm 27.2° 1010.3 hPa 1.4 m/s 0.0 mm 28.5° 1010.1 hPa 1.4 m/s 0.0 mm 28.1° 1010.7 hPa 1.6 m/s
23:00 23.5° 1011.3 hPa 2.0 m/s 0.0 mm 25.6° 1011.4 hPa 1.7 m/s 10.3 mm 23.0° 1011.2 hPa 1.3 m/s 0.0 mm 23.3° 1011.6 hPa 2.3 m/s 0.0 mm 24.4° 1013.0 hPa 2.0 m/s
 05:56     20:51    Daglengte: 14:55 Dinsdag 24 Jul
02:00 21.6° 1011.8 hPa 1.8 m/s 0.0 mm 23.7° 1012.2 hPa 1.9 m/s 10.3 mm 21.0° 1011.4 hPa 1.3 m/s 0.0 mm 21.5° 1011.9 hPa 1.8 m/s 0.0 mm 23.2° 1013.2 hPa 1.7 m/s
05:00 20.2° 1011.7 hPa 1.1 m/s 0.0 mm 22.7° 1012.2 hPa 1.4 m/s 10.3 mm 19.4° 1011.3 hPa 1.0 m/s 0.0 mm 19.9° 1011.8 hPa 0.4 m/s 0.0 mm 22.3° 1013.5 hPa 1.2 m/s
08:00 23.9° 1012.1 hPa 1.1 m/s 0.0 mm 25.6° 1013.1 hPa 2.0 m/s 10.3 mm 21.2° 1012.1 hPa 0.3 m/s 0.0 mm 24.4° 1012.2 hPa 0.9 m/s 0.0 mm 25.4° 1013.5 hPa 0.4 m/s
11:00 28.7° 1011.8 hPa 1.1 m/s 0.0 mm 29.9° 1012.9 hPa 1.9 m/s 10.3 mm 28.0° 1012.1 hPa 1.3 m/s 0.0 mm 28.8° 1011.4 hPa 0.8 m/s 30.1° 1013.3 hPa 1.8 m/s
14:00 32.6° 1010.8 hPa 1.2 m/s 0.0 mm 32.5° 1011.7 hPa 1.6 m/s 10.3 mm 31.5° 1010.9 hPa 2.4 m/s 0.0 mm 33.1° 1010.5 hPa 0.6 m/s 33.4° 1012.2 hPa 1.8 m/s
17:00 31.0° 1009.6 hPa 2.0 m/s 0.0 mm 30.7° 1009.5 hPa 2.1 m/s 34.4° 1010.9 hPa 1.0 m/s 0.0 mm
20:00 29.6° 1009.1 hPa 2.7 m/s 0.0 mm 29.5° 1009.0 hPa 2.8 m/s 30.5° 1010.6 hPa 1.7 m/s 0.0 mm
23:00 26.1° 1009.8 hPa 2.1 m/s 0.0 mm 26.1° 1009.6 hPa 2.1 m/s 25.9° 1012.1 hPa 1.6 m/s 0.0 mm
 05:57     20:50    Daglengte: 14:53 Woensdag 25 Jul
02:00 22.9° 1010.4 hPa 1.5 m/s 0.0 mm 22.8° 1010.2 hPa 1.5 m/s 24.3° 1012.2 hPa 1.5 m/s 0.0 mm
05:00 23.0° 1010.9 hPa 1.4 m/s 0.0 mm 23.1° 1010.9 hPa 1.4 m/s 22.9° 1011.7 hPa 1.3 m/s 0.0 mm
08:00 23.4° 1011.5 hPa 1.3 m/s 0.0 mm 23.3° 1011.5 hPa 1.3 m/s 24.9° 1012.0 hPa 1.3 m/s 0.0 mm
11:00 27.6° 1011.1 hPa 1.1 m/s 0.0 mm 27.4° 1011.0 hPa 1.0 m/s 29.2° 1012.2 hPa 1.7 m/s 0.0 mm
14:00 31.6° 1010.5 hPa 0.8 m/s 0.0 mm 31.5° 1010.5 hPa 0.7 m/s 33.1° 1011.1 hPa 1.9 m/s 0.0 mm
17:00 30.6° 1010.1 hPa 1.0 m/s 0.0 mm 30.2° 1010.1 hPa 0.8 m/s 34.2° 1010.4 hPa 2.1 m/s 0.0 mm
20:00 29.1° 1009.8 hPa 1.2 m/s 0.0 mm 29.0° 1009.7 hPa 1.0 m/s 30.7° 1010.4 hPa 3.2 m/s 0.0 mm
23:00 26.0° 1010.6 hPa 1.5 m/s 0.0 mm 26.0° 1010.5 hPa 1.4 m/s 26.0° 1011.7 hPa 2.3 m/s 0.0 mm
 05:58     20:49    Daglengte: 14:51 Donderdag 26 Jul
02:00 23.1° 1011.3 hPa 1.8 m/s 0.0 mm 23.0° 1011.2 hPa 1.9 m/s 24.3° 1012.1 hPa 0.9 m/s 0.0 mm
05:00 23.9° 1011.5 hPa 1.6 m/s 0.0 mm 24.1° 1011.5 hPa 1.6 m/s 22.8° 1012.0 hPa 1.1 m/s 0.0 mm
08:00 25.1° 1011.8 hPa 1.4 m/s 0.0 mm 25.1° 1011.7 hPa 1.4 m/s 24.8° 1012.7 hPa 1.1 m/s 0.0 mm
11:00 29.0° 1011.3 hPa 1.1 m/s 0.0 mm 28.9° 1011.1 hPa 0.9 m/s 29.8° 1013.0 hPa 2.9 m/s 0.0 mm
14:00 32.8° 1010.6 hPa 0.7 m/s 0.0 mm 32.8° 1010.5 hPa 0.4 m/s 33.1° 1012.3 hPa 3.5 m/s 0.0 mm
17:00 30.9° 1010.7 hPa 1.2 m/s 0.0 mm 30.7° 1010.6 hPa 1.0 m/s 33.5° 1011.7 hPa 3.9 m/s 0.0 mm
20:00 28.7° 1010.8 hPa 1.7 m/s 0.0 mm 28.6° 1010.7 hPa 1.5 m/s 29.6° 1011.9 hPa 4.1 m/s 0.0 mm
23:00 25.7° 1011.3 hPa 1.6 m/s 0.0 mm 25.8° 1011.2 hPa 1.6 m/s 25.4° 1013.5 hPa 2.4 m/s 0.0 mm
 05:59     20:47    Daglengte: 14:48 Vrijdag 27 Jul
02:00 23.0° 1011.8 hPa 1.5 m/s 0.0 mm 22.9° 1011.6 hPa 1.6 m/s 23.6° 1013.7 hPa 0.9 m/s 0.0 mm
05:00 23.5° 1012.2 hPa 1.2 m/s 0.0 mm 23.6° 1012.0 hPa 1.3 m/s 22.4° 1013.5 hPa 0.7 m/s 0.0 mm
08:00 24.4° 1012.6 hPa 1.0 m/s 0.0 mm 24.3° 1012.5 hPa 1.0 m/s 25.0° 1013.8 hPa 0.9 m/s 0.0 mm
11:00 28.7° 1012.1 hPa 1.6 m/s 0.0 mm 28.5° 1012.0 hPa 1.5 m/s 30.4° 1013.7 hPa 2.6 m/s 0.0 mm
14:00 32.8° 1011.5 hPa 2.1 m/s 0.0 mm 32.7° 1011.4 hPa 2.0 m/s 33.9° 1012.8 hPa 2.6 m/s 0.0 mm
17:00 31.0° 1011.4 hPa 1.5 m/s 0.0 mm 30.7° 1011.4 hPa 1.4 m/s 34.7° 1011.9 hPa 1.9 m/s 0.0 mm
20:00 28.8° 1011.5 hPa 1.1 m/s 0.0 mm 28.6° 1011.4 hPa 0.9 m/s 31.0° 1012.0 hPa 2.7 m/s 0.0 mm
23:00 25.8° 1011.9 hPa 1.4 m/s 0.0 mm 25.8° 1011.8 hPa 1.4 m/s 26.2° 1013.2 hPa 2.0 m/s 0.0 mm
 06:00     20:46    Daglengte: 14:46 Zaterdag 28 Jul
02:00 23.0° 1012.3 hPa 1.7 m/s 0.0 mm 22.9° 1012.2 hPa 1.8 m/s 24.7° 1013.2 hPa 0.8 m/s 0.0 mm
05:00 23.9° 1012.6 hPa 1.4 m/s 0.0 mm 24.0° 1012.5 hPa 1.5 m/s 23.3° 1013.2 hPa 0.7 m/s 0.0 mm
08:00 25.1° 1012.9 hPa 1.1 m/s 0.0 mm 25.1° 1012.8 hPa 1.2 m/s 25.6° 1013.7 hPa 0.5 m/s 0.0 mm
11:00 28.7° 1012.6 hPa 1.2 m/s 0.0 mm 28.6° 1012.5 hPa 1.1 m/s 30.6° 1013.9 hPa 1.9 m/s 0.0 mm
14:00 32.2° 1012.2 hPa 1.1 m/s 0.0 mm 32.0° 1012.1 hPa 1.0 m/s 34.2° 1013.0 hPa 2.0 m/s 0.0 mm
20:00 30.0° 1011.6 hPa 1.0 m/s 0.0 mm 29.8° 1011.5 hPa 0.8 m/s 31.9° 1012.7 hPa 2.9 m/s 0.0 mm
 06:01     20:45    Daglengte: 14:44 Zondag 29 Jul
02:00 23.9° 1012.1 hPa 1.9 m/s 0.0 mm 23.7° 1011.9 hPa 2.0 m/s 25.8° 1014.1 hPa 1.1 m/s 0.0 mm
08:00 26.1° 1011.8 hPa 1.9 m/s 0.0 mm 26.1° 1011.6 hPa 2.0 m/s 26.4° 1013.9 hPa 0.6 m/s 0.0 mm
14:00 34.6° 1010.1 hPa 1.8 m/s 0.0 mm 34.6° 1009.9 hPa 1.8 m/s 34.7° 1012.7 hPa 2.0 m/s 0.0 mm
20:00 32.2° 1008.6 hPa 1.5 m/s 0.0 mm 32.3° 1008.4 hPa 1.4 m/s 31.7° 1011.3 hPa 2.1 m/s 0.0 mm
 06:02     20:44    Daglengte: 14:42 Maandag 30 Jul
02:00 24.6° 1009.1 hPa 1.5 m/s 1.6 mm 24.5° 1008.8 hPa 1.5 m/s 25.8° 1012.1 hPa 1.3 m/s 1.6 mm
08:00 25.9° 1008.8 hPa 1.3 m/s 0.0 mm 25.9° 1008.5 hPa 1.3 m/s 26.1° 1011.6 hPa 1.1 m/s 0.0 mm
14:00 35.5° 1006.3 hPa 0.8 m/s 0.0 mm 35.6° 1006.0 hPa 0.6 m/s 34.6° 1009.8 hPa 2.8 m/s 0.0 mm
20:00 27.6° 1006.2 hPa 2.1 m/s 0.0 mm 27.2° 1006.0 hPa 2.0 m/s 32.2° 1008.6 hPa 3.7 m/s 0.0 mm
 06:03     20:43    Daglengte: 14:40 Dinsdag 31 Jul
02:00 23.7° 1006.2 hPa 0.4 m/s 4.1 mm 23.6° 1005.9 hPa 0.4 m/s 24.6° 1009.8 hPa 0.4 m/s 4.1 mm
08:00 25.6° 1009.9 hPa 1.2 m/s 0.0 mm 25.6° 1009.9 hPa 1.2 m/s 0.0 mm
14:00 32.2° 1011.2 hPa 2.5 m/s 0.6 mm
20:00 29.2° 1010.8 hPa 2.0 m/s 1.8 mm
 06:04     20:42    Daglengte: 14:38 Woensdag 01 Aug
02:00 21.8° 1012.5 hPa 1.1 m/s 1.0 mm
08:00 24.0° 1013.1 hPa 1.3 m/s 0.4 mm
14:00 32.3° 1012.7 hPa 1.9 m/s 1.2 mm
20:00 29.5° 1012.4 hPa 1.3 m/s 2.1 mm
 06:05     20:40    Daglengte: 14:35 Donderdag 02 Aug
02:00 21.9° 1014.0 hPa 0.8 m/s 0.6 mm
08:00 24.3° 1014.6 hPa 1.1 m/s 0.2 mm
14:00 32.6° 1013.8 hPa 1.3 m/s 0.7 mm
20:00 29.7° 1013.3 hPa 0.9 m/s 1.3 mm
 06:06     20:39    Daglengte: 14:33 Vrijdag 03 Aug
02:00 22.2° 1014.5 hPa 0.8 m/s 0.2 mm
08:00 24.4° 1014.5 hPa 1.0 m/s 0.2 mm
14:00 32.8° 1013.4 hPa 1.4 m/s 0.6 mm
20:00 29.5° 1012.7 hPa 1.4 m/s 1.0 mm
 06:08     20:38    Daglengte: 14:30 Zaterdag 04 Aug
02:00 22.1° 1013.8 hPa 0.9 m/s 0.3 mm
08:00 24.2° 1014.0 hPa 1.4 m/s 0.2 mm
14:00 32.8° 1012.9 hPa 2.3 m/s 0.4 mm
20:00 29.3° 1012.2 hPa 1.8 m/s 1.1 mm
 06:09     20:36    Daglengte: 14:27 Zondag 05 Aug
02:00 21.9° 1013.6 hPa 0.7 m/s 0.5 mm
08:00 23.8° 1013.9 hPa 1.3 m/s 0.3 mm
14:00 32.1° 1013.1 hPa 2.2 m/s 0.8 mm
FMI Hirlam - 7.5 km EWN WRFDA - 12 km DWD ICON - 7 km GFS - 25 km Basiskaart






























































Updatetijd (Europe/Amsterdam) Resolutie Lengte Stap
FMI Hirlam 13:00, 19:00, 01:00, 07:00 7.5 km 49h 1h
EWN WRFDA 09:30, 15:30, 21:30, 03:30 12 km 73h 1h
DWD ICON 12:45, 18:45, 00:45, 06:45 7 km 75h 1h
GFS 15:15, 21:15, 03:15, 09:15 25 km 237h 3h
30+ mm
25-30 mm
20-25 mm
15-20 mm
10-15 mm
6-10 mm
4-6 mm
2-4 mm
1-2 mm
0.5-1 mm
0.2-0.5 mm
0.1-0.2 mm
30+ mm
25-30 mm
20-25 mm
15-20 mm
10-15 mm
6-10 mm
4-6 mm
2-4 mm
1-2 mm
0.5-1 mm
0.2-0.5 mm
0.1-0.2 mm
Sneeuwval
Natte sneeuw
Hagel
Vorst
30+ mm
25-30 mm
20-25 mm
15-20 mm
10-15 mm
6-10 mm
4-6 mm
2-4 mm
1-2 mm
0.5-1 mm
0.2-0.5 mm
0.1-0.2 mm
Sneeuwval
Natte sneeuw
Hagel
Vorst
Onweer
50 mm
40 mm
30 mm
26 mm
22 mm
18 mm
14 mm
10 mm
9 mm
8 mm
7 mm
6 mm
5 mm
4.5 mm
4 mm
3.5 mm
3 mm
2.5 mm
2 mm
1.5 mm
1 mm
0.8 mm
0.6 mm
0.4 mm
0.2 mm
0.05 mm
35°
30°
25°
20°
15°
10°
-5°
-10°
-15°
-20°
-25°
-30°
-35°
120> km/h
105 km/h
90 km/h
75 km/h
60 km/h
50 km/h
40 km/h
30 km/h
20 km/h
10 km/h
0 km/h
2600 J/kg
2400 J/kg
2200 J/kg
2000 J/kg
1800 J/kg
1600 J/kg
1400 J/kg
1200 J/kg
1000 J/kg
800 J/kg
600 J/kg
400 J/kg
200 J/kg
70 dBZ
65 dBZ
60 dBZ
55 dBZ
50 dBZ
45 dBZ
40 dBZ
35 dBZ
30 dBZ
25 dBZ
20 dBZ
15 dBZ
10 dBZ
5 dBZ
-1 K
-2 K
-3 K
-4 K
-5 K
-6 K
-7 K
-8 K
-9 K
950 m²/s²
900 m²/s²
850 m²/s²
800 m²/s²
750 m²/s²
700 m²/s²
650 m²/s²
600 m²/s²
550 m²/s²
500 m²/s²
450 m²/s²
400 m²/s²
350 m²/s²
300 m²/s²
250 m²/s²
200 m²/s²
150 m²/s²
100 m²/s²
46 m/s
44 m/s
42 m/s
40 m/s
38 m/s
36 m/s
34 m/s
32 m/s
30 m/s
28 m/s
26 m/s
24 m/s
22 m/s
20 m/s
16 m/s
12 m/s
8 m/s
4 m/s
30 m/s
28 m/s
26 m/s
24 m/s
22 m/s
20 m/s
18 m/s
16 m/s
14 m/s
12 m/s
10 m/s
8 m/s
6 m/s
4 m/s
2 m/s
3.0
2.8
2.6
2.4
2.2
2.0
1.8
1.6
1.4
1.2
1.0
0.8
0.6
0.4
0.2
15
14
13
12
11
10
9
8
7
6
5
4
3
2
1
90%
80%
70%
60%
50%
40%
30%
20%
10%
42
40
38
36
34
32
30
28
26
24
22
20
18
16
14
12
90+ cm
80-90 cm
70-80 cm
60-70 cm
50-60 cm
40-50 cm
30-40 cm
20-30 cm
10-20 cm
1-10 cm
Sneeuwval
Natte sneeuw
Regen
>120 mm
115 mm
110 mm
105 mm
100 mm
95 mm
90 mm
85 mm
80 mm
75 mm
70 mm
65 mm
60 mm
55 mm
50 mm
45 mm
45 mm
40 mm
35 mm
30 mm
25 mm
20 mm
15 mm
10 mm
5 mm
0.1 mm
960 hPa
880 hPa
800 hPa
720 hPa
640 hPa
560 hPa
584 gpdm
568 gpdm
552 gpdm
536 gpdm
520 gpdm
504 gpdm
488 gpdm
Extreem zwaar Noodweer Kans op onweer
15% 15% 5% 50% 15%

Dag




Kaart






35°
30°
25°
20°
15°
10°
-5°
-10°
-15°
-20°
-25°
-30°
-35°
120> km/h
105 km/h
90 km/h
75 km/h
60 km/h
50 km/h
40 km/h
30 km/h
20 km/h
10 km/h
0 km/h
Extreem zwaar Noodweer Kans op onweer
15% 15% 5% 50% 15%
>120 mm
115 mm
110 mm
105 mm
100 mm
95 mm
90 mm
85 mm
80 mm
75 mm
70 mm
65 mm
60 mm
55 mm
50 mm
45 mm
45 mm
40 mm
35 mm
30 mm
25 mm
20 mm
15 mm
10 mm
5 mm
0.1 mm
Onweer risico kaarten - De groene en gele kleur geeft de kans op onweer aan binnen 40 km van een punt. Oranje, rood en violet hebben hetzelfde niveau zoals je het ziet op estofex.org waaronder ook de kans op hagel en supercells.

dBZ - dBZ staat voor decibel ten opzichte van Z.

Cape - Convective available potential energy (CAPE), is de totale hoeveelheid energie die een luchtpakketje nodig heeft om zover mogelijk te stijgen in de atmosfeer.

K Index - K-Index wordt berekend door de Vertical Totals (VT) en het verschil tussen de 850 hPa temperatuur en de 700 hPa dauwpuntsdepressie (Tdd 700) bij elkaar op te tellen.

TT Index - Convectie index wordt gebruikt voor het voorspellen van zware buien of onweer.

WRF - The Weather Research and Forecasting (WRF) is een volgende generatie mesoscale numeriek weersvoorspelling systeem ontworpen om zowel de operationele planning als het atmosferisch onderzoek te dienen. WRF is a cooperatie tussen het National Center for Atmospheric Research (NCAR), National Centers for Environmental Prediction (NCEP), Forecast Systems Laboratory (FSL), Air Force Weather Agency (AFWA), Naval Research Laboratory, University of Oklahoma, en de Federal Aviation Administration (FAA). Deze software draait op onze server.

WRFDA - Een meer geavanceerde versie van WRF

Arome - Het 2.5 km Arome model. Verzorgd door het Noors Meteorologisch Instituut.

MET Norway - De proff-default 4km meteorological data is een beste keus selectie van meteorologische modellen gebruikt door met.no die zijn geïnterpoleerd tot een gemeenschappelijke dataset. Verzorgd door het Noorse Meteorologisch Instituut.

SMHI - Het Hirlam model verzorgd door het Zweeds meteorologisch instituut.

FMI - Het Hirlam model verzorgd door het Fins meteorologisch instituut. Dekking alleen Finland.

GFS - Het Global Forecast Systeem (GFS) is een wereldwijd numerieke weersvoorspelling computermodel, gerund door NOAA.

GEM-GDPS - Het GEM-GDPS is a wereldwijd numeriek weersvoorspelling computermodel verzorgd door het Canadees Meteorologisch Centrum.

Credits/Info: Dank aan Stefan Gofferje van sääkeskus.fi voor enkele formules van GrADS. Info: Wikipedia.

Betrouwbaarheid van de verwachting

NB! 2015-03-29: Rebuilding the accuracy-test!

EWNACC
Day 1 Good forecasts

Dag 1 Tmax

Dag 2 Tmax

Geladen verwachtingen TOP 50

Totaal geladen verwachtingen:
Plaats Latitude Longitude Verwachtingen Plaats Latitude Longitude Verwachtingen